Weather History for Defuniak Springs, Defuniak Sp, FL

Change the Weather History Date:

Saturday, May 3, 2014

  Actual Average (KCEW) Record (KCEW)
Temperature  
Mean Temperature 66 °F -  
Max Temperature 77 °F 82 °F 91 °F (1951)
Min Temperature 55 °F 56 °F 43 °F (1999)
Cooling Degree Days 1    
Growing Degree Days 16 (Base 50)    
Moisture  
Dew Point 49 °F    
Average Humidity 60    
Maximum Humidity 96    
Minimum Humidity 29    
Precipitation  
Precipitation 0.00 in - - ()
Sea Level Pressure  
Sea Level Pressure 30.04 in    
Wind  
Wind Speed 4 mph (NNW)    
Max Wind Speed 14 mph    
Max Gust Speed 20 mph    
Visibility 10 miles    
Events      
Averages and records for this station are not official NWS values.
T = Trace of Precipitation, MM = Missing Value Source: NWS Daily Summary

Daily Weather History Graph

Daily Weather History Graph

Search for Another Location

Airport:

Trip Planner

Search our weather history database for the weather conditions in past years. The results will help you decide how hot, cold, wet, or windy it might be!

Date:

Astronomy

May. 03, 2014 Rise Set
Actual Time 5:58 AM CDT 7:24 PM CDT
Civil Twilight 5:33 AM CDT 7:50 PM CDT
Nautical Twilight 5:02 AM CDT 8:20 PM CDT
Astronomical Twilight 4:30 AM CDT 8:53 PM CDT
Moon 9:31 AM CDT (5/3) 11:27 PM CDT (5/3)
Length of Visible Light 14h 17m
Length of Day
13h 25m
Waxing Crescent, 20% of the Moon is Illuminated
May 3
Waxing Crescent
May 6
First Quarter
May 14
Full
May 21
Last Quarter
May 28
New

Hourly Weather History & Observations

Time (CDT) Temp. Dew Point Humidity Pressure Visibility Wind Dir Wind Speed Gust Speed Precip Events Conditions
12:15 AM 60.1 °F 55.4 °F 85% 29.99 in 10.0 mi Calm Calm - N/A   Mostly Cloudy
12:35 AM 60.1 °F 55.0 °F 83% 29.98 in 10.0 mi Calm Calm - N/A   Scattered Clouds
12:55 AM 59.9 °F 55.6 °F 86% 29.98 in 10.0 mi Calm Calm - N/A   Scattered Clouds
1:15 AM 59.9 °F 55.6 °F 86% 29.98 in 10.0 mi NNW 3.5 mph - N/A   Clear
1:35 AM 59.2 °F 55.6 °F 88% 29.98 in 10.0 mi Calm Calm - N/A   Scattered Clouds
1:55 AM 58.5 °F 55.9 °F 91% 29.98 in 10.0 mi NNW 3.5 mph - N/A   Scattered Clouds
2:15 AM 58.1 °F 55.9 °F 93% 29.98 in 10.0 mi NNW 3.5 mph - N/A   Clear
2:35 AM 58.3 °F 55.8 °F 91% 29.99 in 10.0 mi NW 4.6 mph - N/A   Scattered Clouds
2:55 AM 59.0 °F 54.9 °F 86% 29.99 in 10.0 mi Calm Calm - N/A   Mostly Cloudy
3:15 AM 58.8 °F 54.7 °F 86% 29.99 in 10.0 mi NNW 3.5 mph - N/A   Mostly Cloudy
3:35 AM 59.4 °F 53.6 °F 81% 30.01 in 10.0 mi NW 3.5 mph - N/A   Overcast
3:55 AM 59.0 °F 53.6 °F 82% 30.00 in 10.0 mi NNW 4.6 mph - N/A   Mostly Cloudy
4:15 AM 59.4 °F 52.0 °F 77% 29.99 in 10.0 mi NNW 5.8 mph - N/A   Mostly Cloudy
4:35 AM 59.0 °F 51.3 °F 75% 29.99 in 10.0 mi NNW 4.6 mph - N/A   Mostly Cloudy
4:55 AM 59.2 °F 50.5 °F 73% 29.99 in 10.0 mi NNW 5.8 mph - N/A   Mostly Cloudy
5:15 AM 58.8 °F 50.2 °F 73% 29.99 in 10.0 mi NNW 4.6 mph - N/A   Mostly Cloudy
5:35 AM 58.1 °F 49.8 °F 74% 30.00 in 10.0 mi North 4.6 mph - N/A   Scattered Clouds
5:55 AM 57.4 °F 49.6 °F 75% 30.00 in 10.0 mi North 3.5 mph - N/A   Clear
6:15 AM 56.7 °F 49.1 °F 76% 30.01 in 10.0 mi North 3.5 mph - N/A   Clear
6:35 AM 55.8 °F 49.6 °F 80% 30.02 in 10.0 mi North 4.6 mph - N/A   Clear
6:55 AM 56.7 °F 50.0 °F 78% 30.03 in 10.0 mi Calm Calm - N/A   Clear
7:15 AM 57.9 °F 49.3 °F 73% 30.03 in 10.0 mi North 5.8 mph - N/A   Clear
7:35 AM 59.7 °F 48.7 °F 67% 30.04 in 10.0 mi North 5.8 mph - N/A   Clear
7:55 AM 61.9 °F 47.7 °F 60% 30.05 in 10.0 mi North 5.8 mph - N/A   Clear
8:15 AM 63.7 °F 47.5 °F 56% 30.05 in 10.0 mi NNE 4.6 mph - N/A   Clear
8:35 AM 64.6 °F 47.3 °F 53% 30.06 in 10.0 mi North 5.8 mph - N/A   Clear
8:55 AM 65.8 °F 46.6 °F 50% 30.07 in 10.0 mi NNE 5.8 mph - N/A   Clear
9:15 AM 67.1 °F 47.3 °F 49% 30.07 in 10.0 mi NNE 5.8 mph - N/A   Clear
9:35 AM 68.0 °F 45.1 °F 44% 30.08 in 10.0 mi NNE 4.6 mph - N/A   Clear
9:50 AM 68.9 °F 45.7 °F 43% 30.08 in 10.0 mi North 8.1 mph - N/A   Clear
10:15 AM 69.6 °F 44.6 °F 41% 30.08 in 10.0 mi North 6.9 mph - N/A   Clear
10:35 AM 71.1 °F 45.5 °F 40% 30.08 in 10.0 mi North 10.4 mph - N/A   Clear
11:15 AM 72.1 °F 42.8 °F 35% 30.08 in 10.0 mi North 10.4 mph 16.1 mph N/A   Clear
11:35 AM 72.5 °F 44.1 °F 36% 30.08 in 10.0 mi NW 10.4 mph 16.1 mph N/A   Clear
11:55 AM 73.4 °F 44.4 °F 35% 30.08 in 10.0 mi NNE 13.8 mph - N/A   Scattered Clouds
12:15 PM 73.4 °F 42.6 °F 33% 30.07 in 10.0 mi North 9.2 mph 17.3 mph N/A   Scattered Clouds
12:35 PM 74.3 °F 43.2 °F 33% 30.07 in 10.0 mi NW 11.5 mph 17.3 mph N/A   Scattered Clouds
12:55 PM 74.7 °F 43.5 °F 33% 30.06 in 10.0 mi NNE 4.6 mph 9.2 mph N/A   Scattered Clouds
1:15 PM 73.6 °F 43.2 °F 34% 30.06 in 10.0 mi NNW 10.4 mph - N/A   Scattered Clouds
1:35 PM 75.4 °F 43.2 °F 32% 30.06 in 10.0 mi North 11.5 mph 19.6 mph N/A   Scattered Clouds
1:55 PM 75.2 °F 43.3 °F 32% 30.05 in 10.0 mi North 11.5 mph 16.1 mph N/A   Scattered Clouds
2:15 PM 75.6 °F 42.4 °F 31% 30.05 in 10.0 mi North 5.8 mph 17.3 mph N/A   Scattered Clouds
2:35 PM 75.0 °F 42.3 °F 31% 30.04 in 10.0 mi North 9.2 mph - N/A   Clear
2:55 PM 76.6 °F 42.3 °F 29% 30.03 in 10.0 mi NW 13.8 mph - N/A   Clear
3:15 PM 76.3 °F 42.3 °F 30% 30.02 in 10.0 mi North 9.2 mph - N/A   Clear
3:35 PM 76.8 °F 42.1 °F 29% 30.02 in 10.0 mi North 11.5 mph 16.1 mph N/A   Clear
3:55 PM 76.5 °F 42.1 °F 29% 30.02 in 10.0 mi North 6.9 mph 18.4 mph N/A   Clear
4:15 PM 77.2 °F 43.5 °F 30% 30.01 in 10.0 mi WNW 5.8 mph - N/A   Clear
4:35 PM 77.7 °F 43.3 °F 29% 30.01 in 10.0 mi North 9.2 mph - N/A   Clear
4:55 PM 77.0 °F 42.6 °F 29% 30.02 in 10.0 mi NW 6.9 mph 16.1 mph N/A   Clear
5:15 PM 77.0 °F 42.8 °F 29% 30.02 in 10.0 mi NNW 10.4 mph - N/A   Clear
5:35 PM 77.0 °F 43.2 °F 30% 30.02 in 10.0 mi NNW 6.9 mph - N/A   Clear
5:55 PM 76.6 °F 43.2 °F 30% 30.02 in 10.0 mi North 10.4 mph - N/A   Clear
6:15 PM 76.1 °F 44.1 °F 32% 30.02 in 10.0 mi NNW 4.6 mph - N/A   Clear
6:35 PM 75.2 °F 44.4 °F 33% 30.03 in 10.0 mi NW 3.5 mph - N/A   Clear
6:55 PM 73.6 °F 45.7 °F 37% 30.03 in 10.0 mi NW 4.6 mph - N/A   Clear
7:15 PM 71.8 °F 46.0 °F 40% 30.05 in 10.0 mi Calm Calm - N/A   Clear
7:35 PM 68.4 °F 48.0 °F 48% 30.05 in 10.0 mi Calm Calm - N/A   Clear
7:55 PM 68.2 °F 50.5 °F 53% 30.05 in 10.0 mi Calm Calm - N/A   Clear
8:15 PM 61.9 °F 53.1 °F 73% 30.06 in 10.0 mi South 3.5 mph - N/A   Clear
8:35 PM 63.0 °F 52.9 °F 70% 30.07 in 10.0 mi South 3.5 mph - N/A   Clear
8:55 PM 61.2 °F 54.3 °F 78% 30.07 in 10.0 mi Calm Calm - N/A   Clear
9:15 PM 61.2 °F 55.0 °F 80% 30.08 in 10.0 mi Calm Calm - N/A   Clear
9:35 PM 60.6 °F 55.4 °F 83% 30.08 in 10.0 mi Calm Calm - N/A   Clear
9:55 PM 58.3 °F 55.4 °F 90% 30.09 in 10.0 mi Calm Calm - N/A   Clear
10:15 PM 59.4 °F 56.8 °F 91% 30.09 in 10.0 mi Calm Calm - N/A   Clear
10:35 PM 57.9 °F 56.3 °F 94% 30.10 in 10.0 mi Calm Calm - N/A   Clear
10:55 PM 58.3 °F 56.5 °F 94% 30.10 in 10.0 mi Calm Calm - N/A   Clear
11:15 PM 58.1 °F 57.0 °F 96% 30.10 in 10.0 mi Calm Calm - N/A   Clear
11:35 PM 58.1 °F 56.8 °F 96% 30.10 in 10.0 mi WSW 3.5 mph - N/A   Clear
11:55 PM 59.5 °F 55.8 °F 87% 30.10 in 10.0 mi WSW 5.8 mph - N/A   Clear